Change the Weather History Date:

Sunday, March 24, 2013

  Actual Average Record
Temperature  
Mean Temperature 31 °F 45 °F  
Max Temperature 46 °F 57 °F 76 °F (1956)
Min Temperature 15 °F 32 °F 15 °F (2013)
Degree Days  
Heating Degree Days 34 20  
Month to date heating degree days 510 560  
Cooling Degree Days 0 0  
Month to date cooling degree days 0 0  
Moisture  
Dew Point 12 °F    
Average Humidity 49    
Maximum Humidity 77    
Minimum Humidity 21    
Precipitation  
Precipitation 0.00 in 0.03 in 0.39 in (1950)
Month to date precipitation 0.34 0.91  
Sea Level Pressure  
Sea Level Pressure 30.28 in    
Wind  
Wind Speed 5 mph (East)    
Max Wind Speed 10 mph    
Max Gust Speed -    
Visibility 10 miles    
Events      
T = Trace of Precipitation, MM = Missing Value Source: NWS Daily Summary

Daily Weather History Graph

Daily Weather History Graph

Search for Another Location

Airport or City:

Trip Planner

Search our weather history database for the weather conditions in past years. The results will help you decide how hot, cold, wet, or windy it might be!

Date:

Astronomy

Mar. 24, 2013 Rise Set
Actual Time 7:39 AM MDT 8:00 PM MDT
Civil Twilight 7:10 AM MDT 8:29 PM MDT
Nautical Twilight 6:37 AM MDT 9:02 PM MDT
Astronomical Twilight 6:02 AM MDT 9:37 PM MDT
Moon 5:30 PM MDT (3/24) 5:55 AM MDT (3/24)
Length of Visible Light 13h 18m
Length of Day
12h 21m
Waxing Gibbous, 92% of the Moon is Illuminated
Mar 24
Waxing Gibbous
Mar 27
Full
Apr 2
Last Quarter
Apr 10
New
Apr 18
First Quarter

Hourly Weather History & Observations

Time (MDT) Temp. Windchill Dew Point Humidity Pressure Visibility Wind Dir Wind Speed Gust Speed Precip Events Conditions
12:58 AM 20.5 °F 14.0 °F 11.1 °F 67% 30.30 in 10.0 mi West 4.6 mph - N/A   Clear
1:58 AM 20.7 °F 15.8 °F 10.4 °F 65% 30.29 in 10.0 mi NW 3.5 mph - N/A   Clear
2:58 AM 20.3 °F - 9.3 °F 63% 30.30 in 10.0 mi WNW 2.3 mph - N/A   Clear
3:58 AM 16.7 °F 8.3 °F 8.4 °F 70% 30.30 in 10.0 mi East 5.8 mph - N/A   Clear
4:58 AM 16.0 °F 10.4 °F 9.3 °F 75% 30.30 in 10.0 mi East 3.5 mph - N/A   Clear
5:58 AM 16.5 °F - 8.8 °F 72% 30.30 in 10.0 mi ESE 2.3 mph - N/A   Clear
6:58 AM 15.8 °F - 8.4 °F 73% 30.32 in 10.0 mi East 2.3 mph - N/A   Clear
7:58 AM 15.6 °F 5.9 °F 9.5 °F 77% 30.33 in 10.0 mi East 6.9 mph - N/A   Clear
8:58 AM 24.6 °F 17.7 °F 14.7 °F 66% 30.34 in 10.0 mi ESE 5.8 mph - N/A   Clear
9:58 AM 29.5 °F 23.4 °F 16.5 °F 59% 30.34 in 10.0 mi ESE 5.8 mph - N/A   Clear
10:58 AM 34.5 °F 29.4 °F 15.3 °F 45% 30.35 in 10.0 mi SE 5.8 mph - N/A   Clear
11:58 AM 37.9 °F 31.5 °F 14.5 °F 38% 30.34 in 10.0 mi East 9.2 mph - N/A   Clear
12:58 PM 39.7 °F - 12.4 °F 33% 30.33 in 10.0 mi Variable 2.3 mph - N/A   Clear
1:58 PM 41.2 °F 38.2 °F 10.9 °F 29% 30.31 in 10.0 mi Variable 4.6 mph - N/A   Clear
2:58 PM 42.6 °F 37.8 °F 8.4 °F 25% 30.28 in 10.0 mi ENE 8.1 mph - N/A   Partly Cloudy
3:58 PM 44.2 °F - 9.9 °F 25% 30.27 in 10.0 mi ENE 2.3 mph - N/A   Partly Cloudy
4:58 PM 45.0 °F 42.6 °F 10.4 °F 25% 30.25 in 10.0 mi Variable 4.6 mph - N/A   Scattered Clouds
5:58 PM 46.0 °F 41.4 °F 8.2 °F 21% 30.23 in 10.0 mi ESE 9.2 mph - N/A   Partly Cloudy
6:58 PM 45.0 °F 39.7 °F 6.4 °F 21% 30.23 in 10.0 mi ESE 10.4 mph - N/A   Mostly Cloudy
7:58 PM 41.5 °F 36.4 °F 12.0 °F 30% 30.23 in 10.0 mi ESE 8.1 mph - N/A   Scattered Clouds
8:58 PM 35.4 °F 29.0 °F 14.4 °F 42% 30.23 in 10.0 mi ESE 8.1 mph - N/A   Overcast
9:58 PM 34.5 °F 26.7 °F 15.4 °F 46% 30.22 in 10.0 mi East 10.4 mph - N/A   Mostly Cloudy
10:58 PM 29.8 °F 22.2 °F 16.0 °F 56% 30.22 in 10.0 mi East 8.1 mph - N/A   Mostly Cloudy
11:58 PM 30.9 °F 22.2 °F 16.0 °F 54% 30.22 in 10.0 mi ESE 10.4 mph - N/A   Mostly Cloudy